• In Hungary
  • List of Countries
  • For 7 days
  • Water Temperature
  • Satellite Maps
  • Weather Map
  • News
  • Weather Widgets
  • user-avatar
    Login

    Hourly Weather Cesky Krumlov

    Today, 19 October, Thursday

    Time Temperature Precipitation Wind Pressure Humidity
    00:00 +10°C° 0 mm 1 mps 717 mmHg 88%
    01:00 +10°C° 0 mm 1 mps 717 mmHg 88%
    02:00 +9°C° 0 mm 0 mps 717 mmHg 88%
    03:00 +8°C° 0 mm 0 mps 717 mmHg 88%
    04:00 +8°C° 0 mm 0 mps 717 mmHg 88%
    05:00 +8°C° 0 mm 0 mps 717 mmHg 88%
    06:00 +8°C° 0 mm 0 mps 717 mmHg 87%
    07:00 +8°C° 0 mm 0 mps 718 mmHg 87%
    08:00 +11°C° 0 mm 0 mps 718 mmHg 77%
    09:00 +13°C° 0 mm 0 mps 718 mmHg 68%
    10:00 +16°C° 0 mm 0 mps 718 mmHg 58%
    11:00 +17°C° 0 mm 0 mps 718 mmHg 54%
    12:00 +18°C° 0 mm 0 mps 718 mmHg 50%
    13:00 +19°C° 0 mm 0 mps 718 mmHg 45%
    14:00 +18°C° 0 mm 0 mps 718 mmHg 50%
    15:00 +19°C° 0 mm 1 mps 718 mmHg 55%
    16:00 +18°C° 0 mm 1 mps 717 mmHg 60%
    17:00 +16°C° 0 mm 1 mps 717 mmHg 65%
    18:00 +14°C° 0 mm 1 mps 718 mmHg 69%
    19:00 +12°C° 0 mm 1 mps 718 mmHg 74%
    20:00 +12°C° 0 mm 1 mps 718 mmHg 75%
    21:00 +11°C° 0 mm 1 mps 718 mmHg 76%
    22:00 +11°C° 0 mm 1 mps 718 mmHg 78%
    23:00 +11°C° 0 mm 1 mps 718 mmHg 78%

    Tomorrow, 20 October, Friday

    Time Temperature Precipitation Wind Pressure Humidity
    00:00 +10°C° 0 mm 1 mps 718 mmHg 78%
    01:00 +10°C° 0 mm 1 mps 718 mmHg 78%
    02:00 +10°C° 0 mm 1 mps 718 mmHg 78%
    03:00 +10°C° 0 mm 1 mps 718 mmHg 78%
    04:00 +9°C° 0 mm 1 mps 718 mmHg 79%
    05:00 +9°C° 0 mm 1 mps 718 mmHg 79%
    06:00 +9°C° 0 mm 1 mps 718 mmHg 79%
    07:00 +9°C° 0 mm 1 mps 719 mmHg 79%
    08:00 +12°C° 0 mm 1 mps 719 mmHg 72%
    09:00 +14°C° 0 mm 1 mps 719 mmHg 65%
    10:00 +16°C° 0 mm 1 mps 720 mmHg 57%
    11:00 +18°C° 0 mm 1 mps 720 mmHg 55%
    12:00 +19°C° 0 mm 1 mps 720 mmHg 52%
    13:00 +19°C° 0 mm 2 mps 720 mmHg 49%
    14:00 +19°C° 0 mm 1 mps 720 mmHg 54%
    15:00 +19°C° 0 mm 1 mps 720 mmHg 59%
    16:00 +18°C° 0 mm 1 mps 719 mmHg 64%
    17:00 +15°C° 0 mm 1 mps 720 mmHg 70%
    18:00 +14°C° 0 mm 1 mps 720 mmHg 76%
    19:00 +12°C° 0 mm 1 mps 720 mmHg 81%
    20:00 +12°C° 0 mm 1 mps 720 mmHg 82%
    21:00 +12°C° 0 mm 1 mps 721 mmHg 83%
    22:00 +11°C° 0 mm 1 mps 721 mmHg 85%
    23:00 +11°C° 0 mm 1 mps 721 mmHg 85%

    Day after tomorrow, 21 October, Saturday

    Time Temperature Precipitation Wind Pressure Humidity
    00:00 +11°C° 0 mm 1 mps 721 mmHg 85%
    01:00 +11°C° 0 mm 1 mps 721 mmHg 85%
    02:00 +11°C° 0 mm 1 mps 720 mmHg 85%
    03:00 +11°C° 0 mm 1 mps 720 mmHg 84%
    04:00 +11°C° 0 mm 1 mps 720 mmHg 84%
    05:00 +11°C° 0 mm 1 mps 720 mmHg 83%
    06:00 +11°C° 0 mm 1 mps 720 mmHg 82%
    07:00 +11°C° 0 mm 1 mps 720 mmHg 81%
    08:00 +13°C° 0 mm 1 mps 721 mmHg 75%
    09:00 +15°C° 0 mm 1 mps 721 mmHg 70%
    10:00 +16°C° 0 mm 1 mps 721 mmHg 64%
    11:00 +18°C° 0 mm 1 mps 721 mmHg 60%
    12:00 +19°C° 0 mm 1 mps 720 mmHg 57%
    13:00 +19°C° 0 mm 2 mps 720 mmHg 53%
    14:00 +19°C° 0 mm 1 mps 720 mmHg 57%
    15:00 +19°C° 0 mm 1 mps 719 mmHg 61%
    16:00 +18°C° 0 mm 1 mps 719 mmHg 65%
    17:00 +16°C° 0 mm 1 mps 719 mmHg 68%
    18:00 +15°C° 0 mm 1 mps 719 mmHg 71%
    19:00 +13°C° 0 mm 1 mps 719 mmHg 74%
    20:00 +13°C° 0.1 mm 1 mps 719 mmHg 76%
    21:00 +13°C° 0.1 mm 1 mps 719 mmHg 77%
    22:00 +13°C° 0.1 mm 1 mps 719 mmHg 79%
    23:00 +13°C° 0 mm 1 mps 719 mmHg 82%

    22 October, Sunday

    Time Temperature Precipitation Wind Pressure Humidity
    00:00 +13°C° 0 mm 1 mps 720 mmHg 85%
    01:00 +13°C° 0 mm 2 mps 720 mmHg 88%
    02:00 +12°C° 0.2 mm 2 mps 720 mmHg 90%
    03:00 +12°C° 0.2 mm 2 mps 720 mmHg 92%
    04:00 +12°C° 0.2 mm 2 mps 720 mmHg 94%
    05:00 +10°C° 0.6 mm 2 mps 720 mmHg 94%
    06:00 +10°C° 0.6 mm 2 mps 720 mmHg 94%
    07:00 +10°C° 0.6 mm 2 mps 720 mmHg 94%
    08:00 +10°C° 0.9 mm 2 mps 720 mmHg 93%
    09:00 +10°C° 0.9 mm 2 mps 720 mmHg 93%
    10:00 +9°C° 0.9 mm 2 mps 720 mmHg 92%
    11:00 +9°C° 0.8 mm 2 mps 720 mmHg 90%
    12:00 +9°C° 0.8 mm 3 mps 720 mmHg 89%
    13:00 +9°C° 0.8 mm 3 mps 720 mmHg 87%
    14:00 +9°C° 0.6 mm 3 mps 720 mmHg 88%
    15:00 +9°C° 0.6 mm 3 mps 720 mmHg 88%
    16:00 +8°C° 0.6 mm 3 mps 720 mmHg 88%
    17:00 +8°C° 0.2 mm 3 mps 720 mmHg 89%
    18:00 +7°C° 0.2 mm 3 mps 720 mmHg 89%
    19:00 +7°C° 0.2 mm 3 mps 721 mmHg 89%
    20:00 +7°C° 0.1 mm 3 mps 721 mmHg 89%
    21:00 +5°C° 0.1 mm 3 mps 721 mmHg 90%
    22:00 +5°C° 0.1 mm 3 mps 721 mmHg 90%
    23:00 +5°C° 0 mm 3 mps 721 mmHg 90%

    23 October, Monday

    Time Temperature Precipitation Wind Pressure Humidity
    00:00 +5°C° 0 mm 3 mps 721 mmHg 91%
    01:00 +5°C° 0 mm 3 mps 721 mmHg 91%
    02:00 +5°C° 0.1 mm 3 mps 721 mmHg 91%
    03:00 +4°C° 0.1 mm 3 mps 720 mmHg 91%
    04:00 +5°C° 0.1 mm 2 mps 720 mmHg 92%
    05:00 +4°C° 0.1 mm 3 mps 721 mmHg 92%
    06:00 +4°C° 0.1 mm 3 mps 721 mmHg 92%
    07:00 +4°C° 0.1 mm 3 mps 721 mmHg 93%
    08:00 +5°C° 0.1 mm 3 mps 721 mmHg 88%
    09:00 +6°C° 0.1 mm 4 mps 722 mmHg 84%
    10:00 +7°C° 0.1 mm 4 mps 722 mmHg 80%
    11:00 +8°C° 0.1 mm 4 mps 722 mmHg 80%
    12:00 +8°C° 0.1 mm 4 mps 722 mmHg 81%
    13:00 +8°C° 0.1 mm 5 mps 722 mmHg 81%
    14:00 +8°C° 0.1 mm 4 mps 722 mmHg 82%
    15:00 +7°C° 0.1 mm 4 mps 723 mmHg 84%
    16:00 +7°C° 0.1 mm 4 mps 723 mmHg 85%
    17:00 +8°C° 0 mm 3 mps 724 mmHg 87%
    18:00 +7°C° 0 mm 3 mps 724 mmHg 88%
    19:00 +7°C° 0 mm 3 mps 724 mmHg 90%
    20:00 +5°C° 0 mm 3 mps 725 mmHg 91%
    21:00 +6°C° 0 mm 2 mps 725 mmHg 93%
    22:00 +5°C° 0 mm 2 mps 725 mmHg 94%
    23:00 +5°C° 0 mm 2 mps 725 mmHg 95%

    24 October, Tuesday

    Time Temperature Precipitation Wind Pressure Humidity
    00:00 +5°C° 0 mm 2 mps 725 mmHg 95%
    01:00 +5°C° 0 mm 2 mps 725 mmHg 96%
    02:00 +5°C° 0 mm 2 mps 725 mmHg 96%
    03:00 +6°C° 0 mm 1 mps 725 mmHg 96%
    04:00 +6°C° 0 mm 1 mps 725 mmHg 96%
    05:00 +6°C° 0 mm 1 mps 726 mmHg 96%
    06:00 +6°C° 0 mm 1 mps 726 mmHg 96%
    07:00 +7°C° 0 mm 1 mps 726 mmHg 95%
    08:00 +8°C° 0 mm 1 mps 726 mmHg 91%
    09:00 +8°C° 0 mm 2 mps 726 mmHg 86%
    10:00 +10°C° 0 mm 2 mps 726 mmHg 81%
    11:00 +12°C° 0 mm 2 mps 726 mmHg 77%
    12:00 +13°C° 0 mm 2 mps 726 mmHg 73%
    13:00 +14°C° 0 mm 2 mps 726 mmHg 68%
    14:00 +13°C° 0 mm 2 mps 725 mmHg 71%
    15:00 +13°C° 0 mm 1 mps 725 mmHg 74%
    16:00 +13°C° 0 mm 1 mps 725 mmHg 76%
    17:00 +11°C° 0 mm 1 mps 725 mmHg 81%
    18:00 +10°C° 0 mm 1 mps 725 mmHg 85%
    19:00 +9°C° 0 mm 1 mps 726 mmHg 89%
    20:00 +9°C° 0 mm 1 mps 726 mmHg 89%
    21:00 +9°C° 0 mm 1 mps 726 mmHg 89%
    22:00 +8°C° 0 mm 1 mps 726 mmHg 88%
    23:00 +8°C° 0 mm 1 mps 725 mmHg 88%
    Show more